Location: Unspecified
(35.6961°N, 0.0000°E)
Time: 02:35:38
(UTC+00:00)

S-56A Canister/Altair - Pass Details

Date: 05 October 2020
Orbit: 632 x 2500 km, 38.9° (Epoch: 20 October)

Event Time Altitude Azimuth Distance (km) Brightness Sun altitude
Rises 19:46:30 0° 290° (WNW) 5,992 13.4 -26.8°
Reaches altitude 10° 19:51:29 10° 280° (W) 4,778 12.5 -27.8°
Maximum altitude 20:01:21 27° 230° (SW) 3,041 10.8 -29.8°
Enters shadow 20:08:31 11° 179° (S) 3,501 10.7 -31.2°
